Flag for Germany Weather past 2 weeks in Lörrach, Baden-Württemberg, Germany

Now
59 °F

Partly cloudy.


Feels Like: 59 °F
Forecast: 56 / 78 °F
Wind: 2 mph from West

Location: Bale-Mulhouse

Current Time: Jul 24, 2014 at 6:52:56 AM

Latest Report: Jul 24, 2014 at 6:30 AM


Visibility: N/A

Pressure: 29.86 "Hg

Humidity: 94%

Dew point: 57 °F

Location of LörrachLocation

Historic Weather in Lörrach — Graph

°F

Lörrach temperature yesterday

Maximum temperature yesterday: 81 °F (at 3:00 PM)
Minimum temperature yesterday: 64 °F (at 11:00 PM)
Average temperature yesterday: 72 °F

Past Weeks' High & Low Weather Summary

 TemperatureHumidityPressure
High93 °F (Jul 18, 4:35 PM)100% (Jul 11, 4:30 AM)30.18 "Hg (Jul 11, 4:30 AM)
Low54 °F (Jul 9, 8:00 PM)20% (Jul 18, 5:00 PM)29.80 "Hg (Jul 10, 3:30 AM)
Average67 °F79%29.98 "Hg
* Reported Jul 9 5:00 AM — Jul 24 5:30 AM, Lörrach, Weather by CustomWeather, © 2014

Note: Actual official high and low records may vary slightly from our data, if they occured in-between our weather recording intervals... More about our weather records

Advertising

Lörrach weather history for previous 24 hours

 ConditionsComfort  
Time TempWeatherWind HumidityBarometerVisibility
5:30 AM
Jul 24
59 °FPartly cloudy.No wind94%29.86 "HgN/A
5:00 AM59 °FPassing clouds.3 mph100%29.86 "HgN/A
4:30 AM61 °FClear.3 mph94%29.86 "Hg10 mi
4:00 AM61 °FPassing clouds.3 mph94%29.86 "HgN/A
3:30 AM61 °FClear.2 mph94%29.86 "Hg10 mi
2:30 AM61 °FClear.3 mph94%29.86 "HgN/A
2:00 AM61 °FClear.No wind100%29.89 "HgN/A
1:30 AM61 °FClear.No wind100%29.89 "HgN/A
1:00 AM63 °FClear.1 mph94%29.89 "HgN/A
12:30 AM63 °FClear.3 mph94%29.89 "HgN/A
12:00 AM64 °FClear.2 mph94%29.89 "Hg10 mi
11:30 PM
Jul 23
64 °FPassing clouds.3 mph94%29.89 "HgN/A
11:00 PM64 °FClear.3 mph94%29.89 "Hg10 mi
10:30 PM66 °FClear.2 mph88%29.89 "Hg10 mi
10:00 PM70 °FSunny.2 mph78%29.89 "Hg10 mi
9:30 PM70 °FPassing clouds.3 mph83%29.89 "HgN/A
9:00 PM72 °FPassing clouds.5 mph83%29.89 "HgN/A
8:30 PM77 °FPassing clouds.3 mph61%29.89 "HgN/A
8:00 PM77 °FSunny.3 mph61%29.89 "Hg10 mi
7:00 PM81 °FBroken clouds.6 mph54%29.89 "HgN/A
6:30 PM79 °FBroken clouds.7 mph58%29.89 "HgN/A
6:00 PM79 °FPartly sunny.8 mph58%29.89 "HgN/A
5:30 PM79 °FPartly sunny.9 mph61%29.89 "HgN/A
5:00 PM81 °FBroken clouds.12 mph58%29.89 "HgN/A
4:30 PM81 °FBroken clouds.10 mph62%29.89 "HgN/A
4:00 PM81 °FBroken clouds.13 mph62%29.89 "HgN/A
3:30 PM81 °FBroken clouds.10 mph62%29.89 "HgN/A
3:00 PM81 °FBroken clouds.13 mph66%29.92 "HgN/A
2:30 PM79 °FBroken clouds.12 mph65%29.92 "HgN/A
2:00 PM77 °FBroken clouds.9 mph74%29.92 "HgN/A
1:30 PM77 °FBroken clouds.8 mph69%29.92 "HgN/A
1:00 PM75 °FBroken clouds.7 mph74%29.95 "HgN/A
12:00 PM70 °FBroken clouds.8 mph83%29.95 "HgN/A
11:30 AM70 °FBroken clouds.7 mph83%29.98 "HgN/A
11:00 AM70 °FBroken clouds.6 mph83%29.98 "HgN/A
10:00 AM68 °FBroken clouds.8 mph88%29.98 "HgN/A
8:00 AM66 °FFog.3 mph94%29.98 "Hg2 mi
7:30 AM66 °FFog.3 mph100%29.98 "Hg2 mi
7:00 AM66 °FFog.3 mph94%29.98 "Hg1 mi
6:30 AM66 °FFog.3 mph100%29.98 "Hg1 mi
6:00 AM66 °FFog.1 mph100%29.98 "Hg1 mi
Weather by CustomWeather, © 2014

See weather overviewHow to use our weather pages